This is the latest recevied weather packets stored in our database for station/object KI6SYE. If no packets are shown the sender has not sent any weather packets the latest 10 day(s).
| Time | Temp. | Humidity | Pressure | Rain* | Wind** | Luminosity | Snow |
|---|---|---|---|---|---|---|---|
| 1777663004 | 18.89° C | 77% | 1014 hPa | 0 mm | - | 780 W/m² | - |
| 1777662701 | 18.89° C | 76% | 1013.8 hPa | 0 mm | - | 786 W/m² | - |
| 1777662398 | 18.33° C | 78% | 1014.3 hPa | 0 mm | - | 776 W/m² | - |
| 1777662098 | 18.89° C | 76% | 1014.4 hPa | 0 mm | - | 789 W/m² | - |
| 1777661794 | 18.33° C | 78% | 1014.3 hPa | 0 mm | - | 789 W/m² | - |
| 1777661490 | 18.33° C | 78% | 1014.5 hPa | 0 mm | - | 803 W/m² | - |
| 1777661187 | 18.89° C | 78% | 1014.6 hPa | 0 mm | - | 583 W/m² | - |
| 1777660881 | 18.33° C | 79% | 1014.7 hPa | 0 mm | - | 894 W/m² | - |
| 1777660578 | 18.33° C | 79% | 1015 hPa | 0 mm | - | 480 W/m² | - |
| 1777660275 | 18.33° C | 78% | 1014.8 hPa | 0 mm | - | 667 W/m² | - |
| 1777659971 | 18.89° C | 77% | 1014.9 hPa | 0 mm | - | 413 W/m² | - |
| 1777659668 | 20.56° C | 75% | 1014.8 hPa | 0 mm | - | 451 W/m² | - |
| 1777659366 | 20° C | 73% | 1015 hPa | 0 mm | - | 402 W/m² | - |
| 1777659062 | 20.56° C | 71% | 1015.1 hPa | 0 mm | - | 335 W/m² | - |
| 1777658760 | 20° C | 73% | 1014.9 hPa | 0 mm | - | 335 W/m² | - |
| 1777658456 | 20° C | 73% | 1014.8 hPa | 0 mm | - | 352 W/m² | - |
| 1777658153 | 19.44° C | 74% | 1014.7 hPa | 0 mm | - | 300 W/m² | - |
| 1777657850 | 20° C | 74% | 1015 hPa | 0 mm | - | 303 W/m² | - |
| 1777657547 | 20° C | 72% | 1015 hPa | 0 mm | - | 277 W/m² | - |
| 1777657245 | 20° C | 73% | 1015 hPa | 0 mm | - | 271 W/m² | - |
| 1777656941 | 19.44° C | 74% | 1015.1 hPa | 0 mm | - | 264 W/m² | - |
| 1777656638 | 18.89° C | 75% | 1015.2 hPa | 0 mm | - | 240 W/m² | - |
| 1777656328 | 19.44° C | 74% | 1015.2 hPa | 0 mm | - | 223 W/m² | - |
| 1777656024 | 19.44° C | 75% | 1015.1 hPa | 0 mm | - | 237 W/m² | - |
| 1777655720 | 19.44° C | 74% | 1015.3 hPa | 0 mm | - | 213 W/m² | - |
* Rain latest hour (hover to see other rain measurements)
** Current wind speed in m/s (hover to see current wind gust speed)